Location: Góry Miechowskie
(50.3599°N, 20.1803°E)
Time: 22:54:21
(UTC+00:00)

Vanguard 2 - Pass Details

Date: 21 September 2024
Orbit: 552 x 2910 km, 32.9° (Epoch: 02 October)

Event Time Altitude Azimuth Distance (km) Brightness Sun altitude
Exits shadow 02:04:13 11° 168° (SSE) 2,211 9.7 -22.1°
Drops below altitude 10° 02:05:45 10° 152° (SSE) 2,439 10.1 -21.9°
Sets 02:10:56 0° 121° (ESE) 3,907 11.6 -21.2°
